Location: ?????????
(54.7630°N, 39.4991°E)
Time: 15:41:32
(UTC+00:00)

FENGYUN 3A - Pass Details

Date: 14 April 2026
Orbit: 821 x 833 km, 98.7° (Epoch: 17 May)

Event Time Altitude Azimuth Distance (km) Brightness Sun altitude
Rises 23:35:46 0° 16° (NNE) 3,393 8.1 -19.7°
Reaches altitude 10° 23:38:08 10° 17° (NNE) 2,455 7.2 -19.5°
Maximum altitude 23:43:36 86° 105° (ESE) 844 3.6 -19.0°
Enters shadow 23:46:18 31° 194° (SSW) 1,417 4.4 -18.8°
